Time,TemperatureF,DewpointF,PressureIn,WindDirection,WindDirectionDegrees,WindSpeedMPH,WindSpeedGustMPH,Humidity,HourlyPrecipIn,Conditions,Clouds,dailyrainin,SoftwareType,DateUTC
2013-03-03 00:00:00,61.3,13.2,30.36,SSW,196,5.0,5.0,15,0.00,,,0.00,Wunderground v.1.15,2013-03-03 08:00:00,
2013-03-03 00:05:00,61.1,13.0,30.36,SSE,154,6.0,6.0,15,0.00,,,0.00,Wunderground v.1.15,2013-03-03 08:05:00,
2013-03-03 00:15:00,60.6,14.1,30.36,WSW,239,5.0,15.0,16,0.00,,,0.00,Wunderground v.1.15,2013-03-03 08:15:00,
2013-03-03 00:25:00,59.5,13.2,30.36,SSE,163,2.0,15.0,16,0.00,,,0.00,Wunderground v.1.15,2013-03-03 08:25:00,
2013-03-03 00:30:00,59.0,12.8,30.36,SSE,163,1.0,1.0,16,0.00,,,0.00,Wunderground v.1.15,2013-03-03 08:30:00,
2013-03-03 00:35:00,58.8,12.6,30.36,SSE,168,0.0,10.0,16,0.00,,,0.00,Wunderground v.1.15,2013-03-03 08:35:00,
2013-03-03 00:45:00,58.6,12.5,30.36,SSE,168,0.0,10.0,16,0.00,,,0.00,Wunderground v.1.15,2013-03-03 08:45:00,
2013-03-03 00:50:00,58.6,12.5,30.36,SSE,168,0.0,10.0,16,0.00,,,0.00,Wunderground v.1.15,2013-03-03 08:50:00,
2013-03-03 01:00:00,58.3,12.2,30.36,NE,42,1.0,10.0,16,0.00,,,0.00,Wunderground v.1.15,2013-03-03 09:00:00,
2013-03-03 01:05:00,58.4,12.3,30.35,NE,42,2.0,10.0,16,0.00,,,0.00,Wunderground v.1.15,2013-03-03 09:05:00,
2013-03-03 01:10:00,58.5,12.4,30.36,NE,42,2.0,2.0,16,0.00,,,0.00,Wunderground v.1.15,2013-03-03 09:10:00,
2013-03-03 01:15:00,58.2,12.1,30.35,NE,42,0.0,8.0,16,0.00,,,0.00,Wunderground v.1.15,2013-03-03 09:15:00,
2013-03-03 01:25:00,58.4,12.3,30.35,NE,43,1.0,8.0,16,0.00,,,0.00,Wunderground v.1.15,2013-03-03 09:25:00,
2013-03-03 01:30:00,59.0,12.8,30.35,NE,43,1.0,1.0,16,0.00,,,0.00,Wunderground v.1.15,2013-03-03 09:30:00,
2013-03-03 01:35:00,59.1,12.9,30.35,NE,43,0.0,4.0,16,0.00,,,0.00,Wunderground v.1.15,2013-03-03 09:35:00,
2013-03-03 01:45:00,58.2,12.1,30.34,NE,43,1.0,4.0,16,0.00,,,0.00,Wunderground v.1.15,2013-03-03 09:45:00,
2013-03-03 01:50:00,58.4,13.7,30.34,ENE,65,2.0,2.0,17,0.00,,,0.00,Wunderground v.1.15,2013-03-03 09:50:00,
2013-03-03 02:00:00,57.8,13.2,30.34,ENE,73,1.0,4.0,17,0.00,,,0.00,Wunderground v.1.15,2013-03-03 10:00:00,
2013-03-03 02:05:00,57.9,14.6,30.33,East,79,2.0,6.0,18,0.00,,,0.00,Wunderground v.1.15,2013-03-03 10:05:00,
2013-03-03 02:15:00,57.3,14.1,30.33,ESE,115,3.0,6.0,18,0.00,,,0.00,Wunderground v.1.15,2013-03-03 10:15:00,
2013-03-03 02:20:00,57.5,14.3,30.33,ESE,115,2.0,2.0,18,0.00,,,0.00,Wunderground v.1.15,2013-03-03 10:20:00,
2013-03-03 02:25:00,57.3,14.1,30.33,ESE,115,1.0,4.0,18,0.00,,,0.00,Wunderground v.1.15,2013-03-03 10:25:00,
2013-03-03 02:30:00,56.9,15.0,30.33,ESE,115,2.0,6.0,19,0.00,,,0.00,Wunderground v.1.15,2013-03-03 10:30:00,
2013-03-03 02:35:00,56.8,14.9,30.32,ESE,115,2.0,6.0,19,0.00,,,0.00,Wunderground v.1.15,2013-03-03 10:35:00,
2013-03-03 02:45:00,57.1,13.9,30.33,ESE,115,1.0,2.0,18,0.00,,,0.00,Wunderground v.1.15,2013-03-03 10:45:00,
2013-03-03 02:50:00,57.0,13.8,30.33,ESE,115,1.0,1.0,18,0.00,,,0.00,Wunderground v.1.15,2013-03-03 10:50:00,
2013-03-03 03:00:00,57.2,14.0,30.33,ESE,115,0.0,6.0,18,0.00,,,0.00,Wunderground v.1.15,2013-03-03 11:00:00,
2013-03-03 03:05:00,56.9,13.8,30.33,ESE,115,0.0,6.0,18,0.00,,,0.00,Wunderground v.1.15,2013-03-03 11:05:00,
2013-03-03 03:15:00,56.1,14.3,30.33,ESE,115,0.0,5.0,19,0.00,,,0.00,Wunderground v.1.15,2013-03-03 11:15:00,
2013-03-03 03:20:00,56.2,13.2,30.33,ESE,115,0.0,5.0,18,0.00,,,0.00,Wunderground v.1.15,2013-03-03 11:20:00,
2013-03-03 03:30:00,56.3,13.3,30.32,ESE,115,2.0,5.0,18,0.00,,,0.00,Wunderground v.1.15,2013-03-03 11:30:00,
2013-03-03 03:40:00,58.1,13.4,30.31,ESE,113,5.0,9.0,17,0.00,,,0.00,Wunderground v.1.15,2013-03-03 11:40:00,
2013-03-03 03:45:00,58.4,13.7,30.32,ESE,109,5.0,9.0,17,0.00,,,0.00,Wunderground v.1.15,2013-03-03 11:45:00,
2013-03-03 03:50:00,58.2,13.5,30.31,ESE,109,4.0,4.0,17,0.00,,,0.00,Wunderground v.1.15,2013-03-03 11:50:00,
2013-03-03 04:00:00,58.4,13.7,30.31,East,94,4.0,9.0,17,0.00,,,0.00,Wunderground v.1.15,2013-03-03 12:00:00,
2013-03-03 04:05:00,58.7,13.9,30.32,ESE,111,4.0,9.0,17,0.00,,,0.00,Wunderground v.1.15,2013-03-03 12:05:00,
2013-03-03 04:15:00,58.8,15.3,30.32,ESE,110,4.0,9.0,18,0.00,,,0.00,Wunderground v.1.15,2013-03-03 12:15:00,
2013-03-03 04:20:00,59.2,15.7,30.32,SE,140,3.0,3.0,18,0.00,,,0.00,Wunderground v.1.15,2013-03-03 12:20:00,
2013-03-03 04:30:00,59.5,14.6,30.32,SE,137,3.0,3.0,17,0.00,,,0.00,Wunderground v.1.15,2013-03-03 12:30:00,
2013-03-03 04:35:00,59.5,14.6,30.32,SE,137,1.0,10.0,17,0.00,,,0.00,Wunderground v.1.15,2013-03-03 12:35:00,
2013-03-03 04:40:00,59.5,15.9,30.31,SE,130,3.0,10.0,18,0.00,,,0.00,Wunderground v.1.15,2013-03-03 12:40:00,
2013-03-03 04:50:00,59.7,16.1,30.29,SE,142,4.0,4.0,18,0.00,,,0.00,Wunderground v.1.15,2013-03-03 12:50:00,
2013-03-03 05:00:00,58.9,16.7,30.29,West,264,2.0,2.0,19,0.00,,,0.00,Wunderground v.1.15,2013-03-03 13:00:00,
2013-03-03 05:05:00,58.4,16.2,30.29,West,264,1.0,12.0,19,0.00,,,0.00,Wunderground v.1.15,2013-03-03 13:05:00,
2013-03-03 05:15:00,57.8,15.7,30.28,West,264,0.0,2.0,19,0.00,,,0.00,Wunderground v.1.15,2013-03-03 13:15:00,
2013-03-03 05:20:00,57.6,15.6,30.29,West,264,1.0,1.0,19,0.00,,,0.00,Wunderground v.1.15,2013-03-03 13:20:00,
2013-03-03 05:25:00,57.5,15.5,30.28,NW,304,1.0,12.0,19,0.00,,,0.00,Wunderground v.1.15,2013-03-03 13:25:00,
2013-03-03 05:35:00,56.7,16.0,30.28,North,10,1.0,12.0,20,0.00,,,0.00,Wunderground v.1.15,2013-03-03 13:35:00,
2013-03-03 05:40:00,56.5,15.8,30.28,NNE,12,1.0,1.0,20,0.00,,,0.00,Wunderground v.1.15,2013-03-03 13:40:00,
2013-03-03 05:45:00,56.4,15.8,30.28,NNE,12,1.0,4.0,20,0.00,,,0.00,Wunderground v.1.15,2013-03-03 13:45:00,
2013-03-03 05:55:00,55.9,16.5,30.29,NNE,12,0.0,4.0,21,0.00,,,0.00,Wunderground v.1.15,2013-03-03 13:55:00,
2013-03-03 06:00:00,55.8,17.5,30.29,NNE,13,0.0,4.0,22,0.00,,,0.00,Wunderground v.1.15,2013-03-03 14:00:00,
2013-03-03 06:05:00,55.9,16.5,30.29,NNW,339,3.0,8.0,21,0.00,,,0.00,Wunderground v.1.15,2013-03-03 14:05:00,
2013-03-03 06:15:00,55.3,18.1,30.28,NE,40,3.0,8.0,23,0.00,,,0.00,Wunderground v.1.15,2013-03-03 14:15:00,
2013-03-03 06:20:00,55.5,17.2,30.29,NE,40,3.0,8.0,22,0.00,,,0.00,Wunderground v.1.15,2013-03-03 14:20:00,
2013-03-03 06:30:00,56.5,18.1,30.29,NE,52,3.0,8.0,22,0.00,,,0.00,Wunderground v.1.15,2013-03-03 14:30:00,
2013-03-03 06:35:00,57.3,19.8,30.29,ENE,60,4.0,8.0,23,0.00,,,0.00,Wunderground v.1.15,2013-03-03 14:35:00,
2013-03-03 06:40:00,58.4,20.7,30.29,ENE,60,4.0,4.0,23,0.00,,,0.00,Wunderground v.1.15,2013-03-03 14:40:00,
2013-03-03 06:45:00,58.7,22.0,30.29,ENE,60,3.0,7.0,24,0.00,,,0.00,Wunderground v.1.15,2013-03-03 14:45:00,
2013-03-03 06:55:00,59.0,23.2,30.29,ENE,60,4.0,7.0,25,0.00,,,0.00,Wunderground v.1.15,2013-03-03 14:55:00,
2013-03-03 07:00:00,59.8,24.8,30.30,NE,53,3.0,3.0,26,0.00,,,0.00,Wunderground v.1.15,2013-03-03 15:00:00,
2013-03-03 07:05:00,60.8,25.7,30.30,NE,53,2.0,7.0,26,0.00,,,0.00,Wunderground v.1.15,2013-03-03 15:05:00,
2013-03-03 07:15:00,60.4,25.3,30.30,NE,53,1.0,7.0,26,0.00,,,0.00,Wunderground v.1.15,2013-03-03 15:15:00,
2013-03-03 07:20:00,60.5,25.4,30.30,NE,53,0.0,7.0,26,0.00,,,0.00,Wunderground v.1.15,2013-03-03 15:20:00,
2013-03-03 07:30:00,60.2,25.1,30.30,NE,53,0.0,7.0,26,0.00,,,0.00,Wunderground v.1.15,2013-03-03 15:30:00,
2013-03-03 07:35:00,60.1,25.1,30.30,SE,141,1.0,8.0,26,0.00,,,0.00,Wunderground v.1.15,2013-03-03 15:35:00,
2013-03-03 07:45:00,59.9,23.9,30.30,SE,131,9.0,14.0,25,0.00,,,0.00,Wunderground v.1.15,2013-03-03 15:45:00,
2013-03-03 07:50:00,59.5,22.6,30.30,SSE,155,9.0,9.0,24,0.00,,,0.00,Wunderground v.1.15,2013-03-03 15:50:00,
2013-03-03 07:55:00,59.4,22.6,30.29,SE,132,10.0,13.0,24,0.00,,,0.00,Wunderground v.1.15,2013-03-03 15:55:00,
2013-03-03 08:00:00,59.4,21.5,30.29,SE,138,13.0,13.0,23,0.00,,,0.00,Wunderground v.1.15,2013-03-03 16:00:00,
2013-03-03 08:10:00,59.5,20.6,30.28,SE,145,12.0,22.0,22,0.00,,,0.00,Wunderground v.1.15,2013-03-03 16:10:00,
2013-03-03 08:15:00,59.6,20.7,30.29,ESE,106,13.0,22.0,22,0.00,,,0.00,Wunderground v.1.15,2013-03-03 16:15:00,
2013-03-03 08:20:00,59.9,20.9,30.29,SE,132,13.0,13.0,22,0.00,,,0.00,Wunderground v.1.15,2013-03-03 16:20:00,
2013-03-03 08:30:00,60.5,20.3,30.29,South,169,14.0,22.0,21,0.00,,,0.00,Wunderground v.1.15,2013-03-03 16:30:00,
2013-03-03 08:35:00,61.1,20.8,30.30,SE,128,11.0,26.0,21,0.00,,,0.00,Wunderground v.1.15,2013-03-03 16:35:00,
2013-03-03 08:45:00,61.5,21.2,30.30,South,177,8.0,26.0,21,0.00,,,0.00,Wunderground v.1.15,2013-03-03 16:45:00,
2013-03-03 08:50:00,61.6,21.2,30.29,South,171,7.0,7.0,21,0.00,,,0.00,Wunderground v.1.15,2013-03-03 16:50:00,
2013-03-03 08:55:00,61.4,21.1,30.29,SSE,161,6.0,12.0,21,0.00,,,0.00,Wunderground v.1.15,2013-03-03 16:55:00,
2013-03-03 09:00:00,60.8,20.6,30.29,South,186,7.0,7.0,21,0.00,,,0.00,Wunderground v.1.15,2013-03-03 17:00:00,
2013-03-03 09:05:00,60.8,21.7,30.28,South,187,7.0,20.0,22,0.00,,,0.00,Wunderground v.1.15,2013-03-03 17:05:00,
2013-03-03 09:15:00,61.4,21.1,30.29,SE,145,9.0,20.0,21,0.00,,,0.00,Wunderground v.1.15,2013-03-03 17:15:00,
2013-03-03 09:20:00,61.0,20.7,30.29,SE,144,11.0,20.0,21,0.00,,,0.00,Wunderground v.1.15,2013-03-03 17:20:00,
2013-03-03 09:30:00,61.9,21.5,30.28,SE,125,9.0,20.0,21,0.00,,,0.00,Wunderground v.1.15,2013-03-03 17:30:00,
2013-03-03 09:35:00,61.8,21.4,30.28,ESE,118,9.0,20.0,21,0.00,,,0.00,Wunderground v.1.15,2013-03-03 17:35:00,
2013-03-03 09:45:00,61.4,21.1,30.28,SSE,148,13.0,18.0,21,0.00,,,0.00,Wunderground v.1.15,2013-03-03 17:45:00,
2013-03-03 09:50:00,61.6,21.2,30.28,SE,144,12.0,12.0,21,0.00,,,0.00,Wunderground v.1.15,2013-03-03 17:50:00,
2013-03-03 09:55:00,61.4,21.1,30.27,SSE,159,12.0,18.0,21,0.00,,,0.00,Wunderground v.1.15,2013-03-03 17:55:00,
2013-03-03 10:00:00,61.8,21.4,30.27,SSE,156,11.0,11.0,21,0.00,,,0.00,Wunderground v.1.15,2013-03-03 18:00:00,
2013-03-03 10:10:00,62.7,22.2,30.27,SE,140,11.0,11.0,21,0.00,,,0.00,Wunderground v.1.15,2013-03-03 18:10:00,
2013-03-03 10:15:00,62.7,22.2,30.27,SSE,156,10.0,15.0,21,0.00,,,0.00,Wunderground v.1.15,2013-03-03 18:15:00,
2013-03-03 10:20:00,62.5,22.0,30.27,SE,139,12.0,12.0,21,0.00,,,0.00,Wunderground v.1.15,2013-03-03 18:20:00,
2013-03-03 10:30:00,63.0,22.4,30.27,SSE,152,10.0,22.0,21,0.00,,,0.00,Wunderground v.1.15,2013-03-03 18:30:00,
2013-03-03 10:35:00,63.0,22.4,30.27,SE,144,12.0,23.0,21,0.00,,,0.00,Wunderground v.1.15,2013-03-03 18:35:00,
2013-03-03 10:40:00,63.2,22.6,30.27,SSE,148,13.0,13.0,21,0.00,,,0.00,Wunderground v.1.15,2013-03-03 18:40:00,
2013-03-03 10:50:00,63.3,22.7,30.27,SE,133,11.0,11.0,21,0.00,,,0.00,Wunderground v.1.15,2013-03-03 18:50:00,
2013-03-03 11:00:00,63.1,22.5,30.26,ESE,119,11.0,11.0,21,0.00,,,0.00,Wunderground v.1.15,2013-03-03 19:00:00,
2013-03-03 11:05:00,63.2,22.6,30.27,SE,146,11.0,12.0,21,0.00,,,0.00,Wunderground v.1.15,2013-03-03 19:05:00,
2013-03-03 11:15:00,62.8,23.3,30.27,SE,143,14.0,23.0,22,0.00,,,0.00,Wunderground v.1.15,2013-03-03 19:15:00,
2013-03-03 11:20:00,62.8,23.3,30.27,ESE,121,13.0,13.0,22,0.00,,,0.00,Wunderground v.1.15,2013-03-03 19:20:00,
2013-03-03 11:30:00,62.7,24.3,30.27,ESE,118,11.0,11.0,23,0.00,,,0.00,Wunderground v.1.15,2013-03-03 19:30:00,
2013-03-03 11:35:00,62.6,24.2,30.27,SSE,154,11.0,15.0,23,0.00,,,0.00,Wunderground v.1.15,2013-03-03 19:35:00,
2013-03-03 11:45:00,62.8,24.4,30.26,SE,125,11.0,28.0,23,0.00,,,0.00,Wunderground v.1.15,2013-03-03 19:45:00,
2013-03-03 11:50:00,63.0,24.6,30.26,SE,135,10.0,10.0,23,0.00,,,0.00,Wunderground v.1.15,2013-03-03 19:50:00,
2013-03-03 12:00:00,63.6,24.0,30.25,SE,131,7.0,7.0,22,0.00,,,0.00,Wunderground v.1.15,2013-03-03 20:00:00,
2013-03-03 12:05:00,64.0,23.2,30.24,SSE,168,8.0,15.0,21,0.00,,,0.00,Wunderground v.1.15,2013-03-03 20:05:00,
2013-03-03 12:15:00,64.4,23.6,30.24,ESE,104,11.0,22.0,21,0.00,,,0.00,Wunderground v.1.15,2013-03-03 20:15:00,
2013-03-03 12:20:00,64.6,22.6,30.23,SSE,165,13.0,13.0,20,0.00,,,0.00,Wunderground v.1.15,2013-03-03 20:20:00,
2013-03-03 12:30:00,64.9,22.8,30.22,SSE,162,15.0,15.0,20,0.00,,,0.00,Wunderground v.1.15,2013-03-03 20:30:00,
2013-03-03 12:35:00,64.9,21.6,30.22,SSE,152,15.0,30.0,19,0.00,,,0.00,Wunderground v.1.15,2013-03-03 20:35:00,
2013-03-03 12:45:00,65.7,22.3,30.21,SSE,163,15.0,20.0,19,0.00,,,0.00,Wunderground v.1.15,2013-03-03 20:45:00,
2013-03-03 12:50:00,65.2,20.6,30.20,SE,146,16.0,30.0,18,0.00,,,0.00,Wunderground v.1.15,2013-03-03 20:50:00,
2013-03-03 12:55:00,65.6,22.2,30.20,SE,144,17.0,30.0,19,0.00,,,0.00,Wunderground v.1.15,2013-03-03 20:55:00,
2013-03-03 13:00:00,66.1,21.3,30.20,SSE,150,15.0,30.0,18,0.00,,,0.00,Wunderground v.1.15,2013-03-03 21:00:00,
2013-03-03 13:05:00,65.9,19.8,30.19,ESE,115,16.0,33.0,17,0.00,,,0.00,Wunderground v.1.15,2013-03-03 21:05:00,
2013-03-03 13:15:00,66.1,21.3,30.19,SE,146,17.0,33.0,18,0.00,,,0.00,Wunderground v.1.15,2013-03-03 21:15:00,
2013-03-03 13:20:00,66.4,21.6,30.19,SE,128,16.0,16.0,18,0.00,,,0.00,Wunderground v.1.15,2013-03-03 21:20:00,
2013-03-03 13:30:00,65.1,21.8,30.19,SE,142,17.0,17.0,19,0.00,,,0.00,Wunderground v.1.15,2013-03-03 21:30:00,
2013-03-03 13:35:00,65.1,20.5,30.19,SSE,153,17.0,18.0,18,0.00,,,0.00,Wunderground v.1.15,2013-03-03 21:35:00,
2013-03-03 13:40:00,64.9,19.0,30.19,SE,139,16.0,16.0,17,0.00,,,0.00,Wunderground v.1.15,2013-03-03 21:40:00,
2013-03-03 13:50:00,64.6,18.7,30.19,SSW,206,15.0,15.0,17,0.00,,,0.00,Wunderground v.1.15,2013-03-03 21:50:00,
2013-03-03 13:55:00,65.2,19.2,30.19,SSE,154,12.0,30.0,17,0.00,,,0.00,Wunderground v.1.15,2013-03-03 21:55:00,
2013-03-03 14:00:00,65.1,20.5,30.19,SSE,148,11.0,11.0,18,0.00,,,0.00,Wunderground v.1.15,2013-03-03 22:00:00,
2013-03-03 14:05:00,65.6,18.1,30.19,SSE,153,11.0,12.0,16,0.00,,,0.00,Wunderground v.1.15,2013-03-03 22:05:00,
2013-03-03 14:15:00,65.7,16.7,30.19,SE,143,10.0,28.0,15,0.00,,,0.00,Wunderground v.1.15,2013-03-03 22:15:00,
2013-03-03 14:20:00,65.7,16.7,30.18,SSE,167,11.0,11.0,15,0.00,,,0.00,Wunderground v.1.15,2013-03-03 22:20:00,
2013-03-03 14:30:00,65.8,16.8,30.18,ESE,114,10.0,28.0,15,0.00,,,0.00,Wunderground v.1.15,2013-03-03 22:30:00,
2013-03-03 14:35:00,66.4,17.3,30.18,SE,137,11.0,28.0,15,0.00,,,0.00,Wunderground v.1.15,2013-03-03 22:35:00,
2013-03-03 14:45:00,66.2,20.0,30.18,South,171,11.0,17.0,17,0.00,,,0.00,Wunderground v.1.15,2013-03-03 22:45:00,
2013-03-03 14:50:00,65.9,21.2,30.18,SSE,148,11.0,23.0,18,0.00,,,0.00,Wunderground v.1.15,2013-03-03 22:50:00,
2013-03-03 15:00:00,65.4,24.4,30.18,SE,132,12.0,12.0,21,0.00,,,0.00,Wunderground v.1.15,2013-03-03 23:00:00,
2013-03-03 15:05:00,64.6,25.9,30.18,SSE,154,13.0,13.0,23,0.00,,,0.00,Wunderground v.1.15,2013-03-03 23:05:00,
2013-03-03 15:15:00,64.0,27.4,30.17,SSE,150,13.0,20.0,25,0.00,,,0.00,Wunderground v.1.15,2013-03-03 23:15:00,
2013-03-03 15:20:00,63.8,28.2,30.17,SSE,151,13.0,13.0,26,0.00,,,0.00,Wunderground v.1.15,2013-03-03 23:20:00,
2013-03-03 15:25:00,63.5,28.9,30.17,ESE,113,13.0,20.0,27,0.00,,,0.00,Wunderground v.1.15,2013-03-03 23:25:00,
2013-03-03 15:35:00,63.4,27.9,30.17,SSE,152,14.0,27.0,26,0.00,,,0.00,Wunderground v.1.15,2013-03-03 23:35:00,
2013-03-03 15:40:00,63.6,29.0,30.17,SE,128,13.0,13.0,27,0.00,,,0.00,Wunderground v.1.15,2013-03-03 23:40:00,
2013-03-03 15:45:00,63.9,28.3,30.16,SE,129,12.0,15.0,26,0.00,,,0.00,Wunderground v.1.15,2013-03-03 23:45:00,
2013-03-03 15:55:00,63.9,31.0,30.16,SSE,152,12.0,27.0,29,0.00,,,0.00,Wunderground v.1.15,2013-03-03 23:55:00,
2013-03-03 16:00:00,64.0,31.1,30.16,ESE,103,11.0,11.0,29,0.00,,,0.00,Wunderground v.1.15,2013-03-04 00:00:00,
2013-03-03 16:05:00,64.1,31.2,30.16,SE,133,12.0,14.0,29,0.00,,,0.00,Wunderground v.1.15,2013-03-04 00:05:00,
2013-03-03 16:15:00,63.7,30.8,30.15,SSE,164,15.0,16.0,29,0.00,,,0.00,Wunderground v.1.15,2013-03-04 00:15:00,
2013-03-03 16:20:00,63.6,30.7,30.15,SSE,154,15.0,23.0,29,0.00,,,0.00,Wunderground v.1.15,2013-03-04 00:20:00,
2013-03-03 16:30:00,63.0,31.0,30.15,SE,127,17.0,17.0,30,0.00,,,0.00,Wunderground v.1.15,2013-03-04 00:30:00,
2013-03-03 16:35:00,63.0,31.9,30.15,SE,127,16.0,38.0,31,0.00,,,0.00,Wunderground v.1.15,2013-03-04 00:35:00,
2013-03-03 16:40:00,62.8,32.5,30.14,SE,133,14.0,14.0,32,0.00,,,0.00,Wunderground v.1.15,2013-03-04 00:40:00,
2013-03-03 16:45:00,62.5,31.4,30.14,SE,144,13.0,38.0,31,0.00,,,0.00,Wunderground v.1.15,2013-03-04 00:45:00,
2013-03-03 16:50:00,62.2,32.0,30.14,SE,144,16.0,38.0,32,0.00,,,0.00,Wunderground v.1.15,2013-03-04 00:50:00,
2013-03-03 17:00:00,61.8,31.6,30.14,East,98,15.0,38.0,32,0.00,,,0.00,Wunderground v.1.15,2013-03-04 01:00:00,
2013-03-03 17:05:00,61.3,31.9,30.14,ESE,119,15.0,39.0,33,0.00,,,0.00,Wunderground v.1.15,2013-03-04 01:05:00,
2013-03-03 17:15:00,60.6,31.3,30.13,SSE,156,16.0,39.0,33,0.00,,,0.00,Wunderground v.1.15,2013-03-04 01:15:00,
2013-03-03 17:20:00,60.3,31.0,30.14,South,172,16.0,16.0,33,0.00,,,0.00,Wunderground v.1.15,2013-03-04 01:20:00,
2013-03-03 17:25:00,60.0,30.8,30.14,SE,139,18.0,18.0,33,0.00,,,0.00,Wunderground v.1.15,2013-03-04 01:25:00,
2013-03-03 17:35:00,59.4,31.0,30.14,South,172,16.0,39.0,34,0.00,,,0.00,Wunderground v.1.15,2013-03-04 01:35:00,
2013-03-03 17:40:00,59.2,30.8,30.14,SE,135,16.0,34.0,34,0.00,,,0.00,Wunderground v.1.15,2013-03-04 01:40:00,
2013-03-03 17:50:00,58.9,31.3,30.14,SSE,148,17.0,17.0,35,0.00,,,0.00,Wunderground v.1.15,2013-03-04 01:50:00,
2013-03-03 18:00:00,58.6,31.7,30.15,SSE,166,13.0,13.0,36,0.00,,,0.00,Wunderground v.1.15,2013-03-04 02:00:00,
2013-03-03 18:05:00,58.5,31.6,30.14,South,181,14.0,18.0,36,0.00,,,0.00,Wunderground v.1.15,2013-03-04 02:05:00,
2013-03-03 18:15:00,58.4,31.5,30.14,South,178,15.0,35.0,36,0.00,,,0.00,Wunderground v.1.15,2013-03-04 02:15:00,
2013-03-03 18:20:00,58.5,32.3,30.14,SSE,158,15.0,35.0,37,0.00,,,0.00,Wunderground v.1.15,2013-03-04 02:20:00,
2013-03-03 18:25:00,58.2,31.3,30.14,ESE,123,16.0,35.0,36,0.00,,,0.00,Wunderground v.1.15,2013-03-04 02:25:00,
2013-03-03 18:30:00,58.0,31.8,30.13,South,185,15.0,15.0,37,0.00,,,0.00,Wunderground v.1.15,2013-03-04 02:30:00,
2013-03-03 18:35:00,58.0,31.8,30.13,SSE,165,14.0,31.0,37,0.00,,,0.00,Wunderground v.1.15,2013-03-04 02:35:00,
2013-03-03 18:45:00,57.6,32.2,30.13,SSE,157,14.0,31.0,38,0.00,,,0.00,Wunderground v.1.15,2013-03-04 02:45:00,
2013-03-03 18:50:00,57.4,32.0,30.13,SSE,166,15.0,31.0,38,0.00,,,0.00,Wunderground v.1.15,2013-03-04 02:50:00,
2013-03-03 19:00:00,57.3,31.9,30.13,South,185,15.0,15.0,38,0.00,,,0.00,Wunderground v.1.15,2013-03-04 03:00:00,
2013-03-03 19:05:00,57.8,32.3,30.13,SE,140,15.0,31.0,38,0.00,,,0.00,Wunderground v.1.15,2013-03-04 03:05:00,
2013-03-03 19:10:00,57.3,31.9,30.13,SSE,153,15.0,31.0,38,0.00,,,0.00,Wunderground v.1.15,2013-03-04 03:10:00,
2013-03-03 19:15:00,57.0,32.3,30.14,SE,132,14.0,31.0,39,0.00,,,0.00,Wunderground v.1.15,2013-03-04 03:15:00,
2013-03-03 19:20:00,56.7,32.6,30.13,SSE,148,13.0,31.0,40,0.00,,,0.00,Wunderground v.1.15,2013-03-04 03:20:00,
2013-03-03 19:30:00,56.4,33.0,30.13,SSE,163,14.0,31.0,41,0.00,,,0.00,Wunderground v.1.15,2013-03-04 03:30:00,
2013-03-03 19:35:00,56.4,33.0,30.14,South,169,14.0,34.0,41,0.00,,,0.00,Wunderground v.1.15,2013-03-04 03:35:00,
2013-03-03 19:45:00,56.2,32.8,30.14,SE,145,12.0,34.0,41,0.00,,,0.00,Wunderground v.1.15,2013-03-04 03:45:00,
2013-03-03 19:50:00,55.9,33.1,30.14,SSE,153,13.0,13.0,42,0.00,,,0.00,Wunderground v.1.15,2013-03-04 03:50:00,
2013-03-03 20:00:00,55.7,32.9,30.14,SSE,158,13.0,34.0,42,0.00,,,0.00,Wunderground v.1.15,2013-03-04 04:00:00,
2013-03-03 20:05:00,56.0,33.8,30.14,SSE,151,13.0,34.0,43,0.00,,,0.00,Wunderground v.1.15,2013-03-04 04:05:00,
2013-03-03 20:15:00,56.3,33.5,30.14,SSE,162,13.0,24.0,42,0.00,,,0.00,Wunderground v.1.15,2013-03-04 04:15:00,
2013-03-03 20:25:00,56.4,33.6,30.14,SE,129,12.0,24.0,42,0.00,,,0.00,Wunderground v.1.15,2013-03-04 04:25:00,
2013-03-03 20:30:00,56.1,33.9,30.14,SE,133,11.0,24.0,43,0.00,,,0.00,Wunderground v.1.15,2013-03-04 04:30:00,
2013-03-03 20:35:00,56.1,33.3,30.14,SE,139,11.0,29.0,42,0.00,,,0.00,Wunderground v.1.15,2013-03-04 04:35:00,
2013-03-03 20:45:00,55.9,33.1,30.14,SE,139,11.0,29.0,42,0.00,,,0.00,Wunderground v.1.15,2013-03-04 04:45:00,
2013-03-03 20:50:00,56.0,33.8,30.14,SE,142,12.0,12.0,43,0.00,,,0.00,Wunderground v.1.15,2013-03-04 04:50:00,
2013-03-03 21:00:00,55.6,34.0,30.15,SSE,157,11.0,29.0,44,0.00,,,0.00,Wunderground v.1.15,2013-03-04 05:00:00,
2013-03-03 21:05:00,55.4,33.8,30.15,SSE,156,10.0,29.0,44,0.00,,,0.00,Wunderground v.1.15,2013-03-04 05:05:00,
2013-03-03 21:10:00,55.3,33.7,30.14,SE,138,10.0,20.0,44,0.00,,,0.00,Wunderground v.1.15,2013-03-04 05:10:00,
2013-03-03 21:15:00,55.2,34.2,30.15,SSE,153,12.0,20.0,45,0.00,,,0.00,Wunderground v.1.15,2013-03-04 05:15:00,
2013-03-03 21:20:00,55.0,34.0,30.15,SSE,148,11.0,20.0,45,0.00,,,0.00,Wunderground v.1.15,2013-03-04 05:20:00,
2013-03-03 21:30:00,54.3,33.9,30.15,SE,144,9.0,20.0,46,0.00,,,0.00,Wunderground v.1.15,2013-03-04 05:30:00,
2013-03-03 21:35:00,54.2,33.9,30.15,SE,142,9.0,20.0,46,0.00,,,0.00,Wunderground v.1.15,2013-03-04 05:35:00,
2013-03-03 21:45:00,54.2,33.9,30.14,SE,140,11.0,15.0,46,0.00,,,0.00,Wunderground v.1.15,2013-03-04 05:45:00,
2013-03-03 21:50:00,54.3,33.9,30.14,SSE,154,11.0,20.0,46,0.00,,,0.00,Wunderground v.1.15,2013-03-04 05:50:00,
2013-03-03 21:55:00,54.5,34.1,30.15,SSE,151,12.0,22.0,46,0.00,,,0.00,Wunderground v.1.15,2013-03-04 05:55:00,
2013-03-03 22:00:00,54.4,34.0,30.15,ESE,121,12.0,12.0,46,0.00,,,0.00,Wunderground v.1.15,2013-03-04 06:00:00,
2013-03-03 22:05:00,54.3,33.9,30.15,SSE,152,11.0,28.0,46,0.00,,,0.00,Wunderground v.1.15,2013-03-04 06:05:00,
2013-03-03 22:15:00,54.0,33.7,30.15,SE,143,11.0,28.0,46,0.00,,,0.00,Wunderground v.1.15,2013-03-04 06:15:00,
2013-03-03 22:20:00,53.8,34.0,30.15,SE,140,10.0,28.0,47,0.00,,,0.00,Wunderground v.1.15,2013-03-04 06:20:00,
2013-03-03 22:30:00,53.2,34.0,30.16,SSE,153,10.0,28.0,48,0.00,,,0.00,Wunderground v.1.15,2013-03-04 06:30:00,
2013-03-03 22:35:00,52.9,34.2,30.16,SE,127,10.0,28.0,49,0.00,,,0.00,Wunderground v.1.15,2013-03-04 06:35:00,
2013-03-03 22:45:00,52.8,34.2,30.16,SSE,162,9.0,22.0,49,0.00,,,0.00,Wunderground v.1.15,2013-03-04 06:45:00,
2013-03-03 22:50:00,52.6,34.0,30.16,South,185,8.0,22.0,49,0.00,,,0.00,Wunderground v.1.15,2013-03-04 06:50:00,
2013-03-03 23:00:00,52.0,33.4,30.17,SSE,156,4.0,4.0,49,0.00,,,0.00,Wunderground v.1.15,2013-03-04 07:00:00,
2013-03-03 23:10:00,51.7,33.1,30.15,SE,133,7.0,7.0,49,0.00,,,0.00,Wunderground v.1.15,2013-03-04 07:10:00,
2013-03-03 23:20:00,51.5,33.0,30.15,SE,133,9.0,18.0,49,0.00,,,0.00,Wunderground v.1.15,2013-03-04 07:20:00,
2013-03-03 23:30:00,51.6,33.6,30.15,ESE,123,9.0,9.0,50,0.00,,,0.00,Wunderground v.1.15,2013-03-04 07:30:00,
2013-03-03 23:35:00,51.5,33.5,30.15,SE,133,8.0,18.0,50,0.00,,,0.00,Wunderground v.1.15,2013-03-04 07:35:00,
2013-03-03 23:45:00,51.6,33.6,30.15,SE,125,9.0,18.0,50,0.00,,,0.00,Wunderground v.1.15,2013-03-04 07:45:00,
2013-03-03 23:50:00,51.4,33.9,30.15,South,172,9.0,9.0,51,0.00,,,0.00,Wunderground v.1.15,2013-03-04 07:50:00,